Kosmos-1718

operational
NORAD ID: 16451 Int'l Des: 1986-002 Owner: GUKOS Country: SU
LEOCIRCULAR

Kosmos-1718について

説明を読み込み中...

リアルタイム位置

3D地球を読み込み中...

次回通過

高度履歴

Altitude vs Time

uPlot chart will show altitude changes over time

軌道要素

1 16451U 86002C 26062.63176360 -.00000016 00000-0 -14702-5 0 9999
2 16451 73.9852 245.7672 0012988 36.9978 28.9464 12.45094319824731
Epoch: Mar 3, 2026 • Age: 38 hours

現在のステータス

高度 1480.3 km
速度 7.13 km/s
衛星直下点 -4.45°S, 127.96°W
打ち上げ日 Jan 9, 1986
運用期間 40.1 years
タイプ other

技術仕様

分類 Payload
質量 60.00 kg
乾燥質量 60.00 kg
総質量 60.00 kg
長さ 0.80 m
直径 0.80 m
スパン 0.80 m
形状 Poly
製造者 NPOPM
バスタイプ Strela-1 11F625
フェーズステータス In Orbit
所有者/国 GUKOS/SU

大規模コンステレーション

Loading constellations...